This demonstration page uses our WeatherBlox Daily Observations layout. Learn more.

38.89511, -77.03637

Hourly Observations for January 20, 2020

Temp ( °F °C ) Dew Point ( °F °C ) Humidity (%) Winds ( mph kmh ) Pressure ( in mb ) Visibility ( mi km ) Precip ( " mm )
12:52 am 00:52 Clear 27 -2.8 11 -11.7 51 51 NW 18 30 30.19 1023 10 16.0934 0 0
1:52 am 01:52 Clear 26 -3.3 11 -11.7 53 53 NW 18 30 30.2 1023 10 16.0934 0 0
2:52 am 02:52 Mostly Cloudy 26 -3.3 11 -11.7 53 53 NW 9 15 30.22 1023 10 16.0934 0 0
3:52 am 03:52 Partly Cloudy 25 -3.9 12 -11.1 58 58 NW 15 24 30.22 1023 10 16.0934 0 0
4:52 am 04:52 Mostly Clear 25 -3.9 12 -11.1 58 58 NW 10 17 30.24 1024 10 16.0934 0 0
5:52 am 05:52 Mostly Clear 25 -3.9 12 -11.1 58 58 NNW 13 20 30.27 1025 10 16.0934 0 0
6:52 am 06:52 Mostly Clear 25 -3.9 11 -11.7 55 55 NW 15 24 30.31 1026 10 16.0934 0 0
7:52 am 07:52 Sunny 25 -3.9 11 -11.7 55 55 NNW 14 22 30.34 1027 10 16.0934 0 0
8:52 am 08:52 Sunny 27 -2.8 11 -11.7 51 51 NNW 15 24 30.37 1028 10 16.0934 0 0
9:52 am 09:52 Sunny 29 -1.7 11 -11.7 47 47 NNW 17 28 30.39 1029 10 16.0934 0 0
10:52 am 10:52 Mostly Sunny 32 0 11 -11.7 41 41 NNW 16 26 30.41 1030 10 16.0934 0 0
11:52 am 11:52 Mostly Sunny 34 1.1 11 -11.7 38 38 N 21 33 30.39 1029 10 16.0934 0 0
12:52 pm 12:52 Sunny 35 1.7 10 -12.2 35 35 N 20 31 30.37 1029 10 16.0934 0 0
1:52 pm 13:52 Sunny 36 2.2 9 -12.8 32 32 N 17 28 30.37 1028 10 16.0934 0 0
2:52 pm 14:52 Sunny 36 2.2 9 -12.8 32 32 NNW 18 30 30.37 1028 9 14.48406 0 0
3:52 pm 15:52 Sunny 35 1.7 9 -12.8 34 34 NNW 16 26 30.38 1029 10 16.0934 0 0
4:52 pm 16:52 Sunny 33 0.6 7 -13.9 33 33 NNW 15 24 30.39 1029 10 16.0934 0 0
5:52 pm 17:52 Clear 32 0 8 -13.3 36 36 NNW 12 19 30.41 1030 10 16.0934 0 0
6:52 pm 18:52 Clear 31 -0.6 8 -13.3 38 38 NNW 8 13 30.42 1030 10 16.0934 0 0
7:52 pm 19:52 Clear 30 -1.1 7 -13.9 38 38 N 7 11 30.44 1031 10 16.0934 0 0
8:52 pm 20:52 Clear 29 -1.7 9 -12.8 43 43 NNW 9 15 30.44 1031 10 16.0934 0 0
9:52 pm 21:52 Clear 29 -1.7 9 -12.8 43 43 NNW 10 17 30.45 1031 10 16.0934 0 0
10:52 pm 22:52 Clear 28 -2.2 10 -12.2 47 47 NNW 13 20 30.45 1031 10 16.0934 0 0
11:52 pm 23:52 Clear 28 -2.2 11 -11.7 49 49 NNW 14 22 30.44 1031 10 16.0934 0 0

Powered by AerisWeather